Back to catalog

ONEWEB-0278

AliveCommunicationsPO
NORAD 48996·PAYLOAD·🇬🇧 United Kingdom

Launched Jul 1, 2021 from Vostochny Cosmodrome

Loading…

Next Passes (next 24 hours)

TLE

FreshSource: CelesTrak SupGP

Epoch: Sep 14, 2026, 08:32 UTC

1 48996C 21060AF  26257.35571020  .00002383  00000+0  62414-2 0  2571
2 48996  87.9149 211.0687 0001901  82.8178  18.8405 13.16591149    13

Track ONEWEB-0278 in real time with AllMySat

Download on the App Store